FENGYUN 1C DEB

Satellite information

Favourite Embed

Satellite Type and Status

DEBRISIN ORBIT

Key statistics

Satellite FENGYUN 1C DEB at a glance.

Uptime

9495

Days in orbit

Revolutions

≈ 14.1

Per day

Orbit

SSO

Sun Synchronous Orbit

Inclination

98.7

Latest

Satellite identification and parameters

Extended collection of information and parameters for FENGYUN 1C DEB.

Object identification

Identified? True

Debris? True

Object name: FENGYUN 1C DEB

International designator: 1999-025APD

Object number (NORAD): 30646

Object ID (CCSDS): 30646

Country: PEOPLES REPUBLIC OF CHINA (PRC)

Current information (Y/N): Y

RCS size: SMALL

Orbital parameters

Period: 102.192 minutes

Inclination: 98.6661 deg

SMA: 7240.536 km

Apoapsis: 896.113 km

Periapsis: 828.689 km

RAAN: 156.7718 deg

Eccentricy: 0.004656

Argument of periapsis: 291.7709 deg

Mean anomaly: 67.851 deg

Mean motion: 14.09115679 rev/day

Mean motion (dot): 0.00001038 rev/day2

B* drag term: 0.0006167 1/REarth

Two-line elements (TLE)

Creation date: May 8, 2025, 3:01 a.m.

Reference frame: TEME

Reference center: EARTH

Epoch: May 7, 2025, 9:20 p.m. UTC

TLE line 0: 0 FENGYUN 1C DEB

TLE line 1: 1 30646U 99025APD 25127.88914799 .00001038 00000-0 61670-3 0 9991

TLE line 2: 2 30646 98.6661 156.7718 0046560 291.7709 67.8510 14.09115679935229

Live tracking on map

Real-time ground track for satellite FENGYUN 1C DEB.

In-orbit conjunctions

A list of the most updated potential collisions computed for object FENGYUN 1C DEB.

Target Orbit TCA Probability of collision Miss distance Type
COSMOS 1275 DEB LEO 2025-03-24 20:09:15 0.0001112132 180.0 (m) DEBRIS
OBJECT D SSO 2025-02-25 13:44:33 0.0001093488 550.0 (m) UNKNOWN
ELECTRON KICK STAGE R/B SSO 2024-09-26 12:07:59 0.0002938351 824.0 (m) ROCKET BODY

Associated space launch

Chinese polar orbiting meteorological satellite

FENGYUN 1C DEB was lifted into orbit during the mission ‘Long March 4B | Feng Yun 1C’, on board a Long March 4B space rocket.

The launch took place on May 10, 1999, 1:33 a.m. from Launch Complex 7.

For more information about the launch, click the button.

Launch to space Long March 4B | Feng Yun 1C
Long March 4B | Feng Yun 1C

Agency: N/A

Status: Launch Successful

Launch date: May 10, 1999, 1:33 a.m. UTC

Rocket: Long March 4B

Launch pad: Launch Complex 7

Location: Taiyuan Satellite Launch Center, People's Republic of China

...

Latest news about this satellite

There are no fresh news available about this satellite. Check back as we update our databases every day.


Newsletter sign-up

Weekly statistics, charts and insights to help you stay on top of the space industry.